Follow iAlert.com on twitter @ialertcom
Search For Active Alerts in Your Area  
  Hi Guest:  [ Sign-up / Services ] [ Login ]

Current weather by "City, St" or "zip code"  
 

Advertise Here

Current Conditions: Reading, Reading Regional Airport, PA

Fair


80.0 F

Last Updated on Jun 18 2018, 8:54 am EDT
Humidity: 71%
Wind Speed: SW 4.6 mph
Barometer 30.03 in
Dewpoint: 70.0 F
Visibility: 10.00 mi
Precip: --
Heat Index: 83 F
Wind Chill: NA
Current conditions at:

Reading, Reading Regional Airport, PA (KRDG)

Lat: 40.37 Lon: 75.959

Local Radar Image active severe weather and emergency alerts image image weather storm and storm spotter reports image weather observation monitoring service image
Local
Radar
Active
Alerts
Storm Reports Obs
Monitoring

iAlert Weather and Emergency Alert Notification Services:


ialert severe weather and emergency alerts by text message and email ialert daily weather forecast by email and text message service ialert real-time weather-observation monitoring and alert notification service ialert storm report monitoring alert notification

Observation History for Reading, Reading Regional Airport, PA


Time Wind
(mph)
Vis
(mi)
Weather Precip (in) Temperature (F) Relative
Humidity
Wind
Chill
(°F)
Heat
Index
(°F)
Pressure
Air Dwpt altimeter
(in)
sea level
(mb)
8:54 am EDT SW 4.6 10.00 Fair -- 80.0 70.0 71% NA 83 30.03 1017.1
7:54 am EDT N 0.0 10.00 Fair -- 76.0 68.0 77% NA NA 30.04 1017.3
6:54 am EDT N 0.0 10.00 Fair -- 72.0 66.0 82% NA NA 30.05 1017.7
5:54 am EDT S 3.5 10.00 Fair -- 71.0 66.0 84% NA NA 30.05 1017.8
4:54 am EDT N 0.0 10.00 Fair -- 68.0 64.9 90% NA NA 30.05 1017.8
3:54 am EDT NW 3.5 10.00 Fair -- 70.0 64.9 84% NA NA 30.05 1017.6
2:54 am EDT N 0.0 10.00 Fair -- 72.0 64.0 76% NA NA 30.06 1018.0
1:54 am EDT N 0.0 10.00 Fair -- 75.0 64.0 69% NA NA 30.06 1018.0
12:54 am EDT S 3.5 10.00 Fair -- 75.0 62.1 64% NA NA 30.07 1018.2
11:54 pm EDT S 3.5 10.00 Fair -- 76.0 62.1 62% NA NA 30.07 1018.3
10:54 pm EDT S 5.8 10.00 Fair -- 77.0 62.1 60% NA NA 30.05 1017.7
9:54 pm EDT S 5.8 10.00 Fair -- 79.0 64.0 60% NA NA 30.04 1017.5
8:54 pm EDT S 4.6 10.00 Fair -- 82.0 64.9 56% NA 84 30.04 1017.4
7:54 pm EDT S 3.5 10.00 Fair -- 87.0 64.9 48% NA 89 30.03 1017.2
6:54 pm EDT W 4.6 10.00 Fair -- 88.0 64.0 45% NA 89 30.04 1017.3
5:54 pm EDT W 4.6 10.00 A Few Clouds -- 89.0 64.0 43% NA 90 30.04 1017.5
4:54 pm EDT S 4.6 10.00 Fair -- 90.0 62.1 39% NA 90 30.05 1017.8
3:54 pm EDT W 6.9 10.00 A Few Clouds -- 89.0 63.0 42% NA 90 30.05 1017.6
2:54 pm EDT N 0.0 10.00 Fair -- 89.0 61.0 39% NA 89 30.05 1017.9
1:54 pm EDT W 9.2 10.00 Fair -- 88.0 60.1 39% NA 88 30.06 1018.1
12:54 pm EDT 3.5 10.00 Fair -- 87.0 64.0 46% NA 88 30.07 1018.4
11:54 am EDT N 0.0 10.00 Fair -- 86.0 57.9 39% NA 85 30.09 1019.2
10:54 am EDT 3.5 10.00 Fair -- 83.0 63.0 51% NA 84 30.10 1019.5
9:54 am EDT S 3.5 10.00 Partly Cloudy -- 78.0 64.0 62% NA NA 30.09 1019.1

Regional Weather Observation


Reading, Reading Regional Airport, PA (KRDG)

Fair
80.0 F

Lancaster, Lancaster Airport, PA (KLNS)

A Few Clouds
80.0 F

Selinsgrove Penn Valley Airport, PA (KSEG)

Fair
74.0 F

Harrisburg, Harrisburg International Airport, PA (KMDT)

Overcast
78.0 F

Harrisburg, Capital City Airport, PA (KCXY)

A Few Clouds
77.0 F

Allentown Queen City Municipal Airport, PA (KXLL)

Fair
77.0 F

Advertise Here